SL-3 R/B, 11963

Orbit data source: Space-Track

SL-3 R/B, 11963 is space debris in LEO originally from a launch on Tue, 09 Sep 1980 UTC launched from the Plesetsk Missile And Space Complex (PKMTR). Debris objects in space refer to the collection of defunct objects orbiting the Earth. Examples of debris include non-operational satellites, rocket bodies, and fragments generated from explosions, collisions, or faulty payload assembly.

Loading next visibility...
SL-3 R/B details
Identifier
11963, 1980-073B
Orbit
LEO
Last TLE update6 hours ago
Origin
Flag of CISRVSN (CIS)
ManufacturerProgress
MissionSpacecraft
Bus & MotorBLOK-E, Unknown motor
Mass1,440 kg wet, 1,440 kg dry
Launch date (UTC)
1980-09-09 (44 years ago)
Launch vehicleUnknown
Launch site
Plesetsk Missile And Space Complex (PKMTR)
Object type
Payload
Rocket body
Debris
Shape & HBRCyl, 3.8 m
Radar Cross Section10.414 m², Large (>1 m²)

Expand to show TLE details & history

TLE from 6 hours ago
0 SL-3 R/B
1 11963U 80073B   24361.27693796  .00000318  00000-0  16890-3 0  9992
2 11963  81.2767 339.4104 0074157 213.7896 145.8538 14.10044291277609
Epoch: 2024-12-26T06:38Z
Definitive object data (Epoch: 2024-12-26T06:38:47.439Z)
Latitude-0.00008°
Longitude144.45408°
Altitude906.671 km
Speed7.376 km/s
True Right ascension22h 37m 38s
True Declination0° 00' 00"
Sunlit
Object was in daylight at TLE epoch
Visualization TLE readout
Latitude80.57133°
Longitude-102.56942°
Altitude898.656 km
Speed7.396 km/s
Apparent Right ascension00h 29m 59s
Apparent Declination32° 25' 25"
Sunlit
Object is in full shadow
Visualization observer readout
Local Sidereal Time11:33:43
Azimuth347.644° N
Elevation-16.496°
Doppler factor1
Orbital elements
Apogee altitude910.042 km
Perigee altitude802.743 km
Semi-major axis7,234.529 km
Eccentricity0.0074157
Inclination81.2767°
RAAN339.4104°
Arg. of periapsis213.7896°
True anomaly146.32715°
Mean anomaly145.8538°
Eccentric anomaly146.09084°
Mean motion3.52718 °/min
BSTAR0.0001689
Orbital period102.06 mins
Loading maneuver chart data...
Loading historical data...
Loading historical data...
Loading historical data...
Loading historical data...
Loading historical data...
Loading historical data...
Loading historical data...

SL-3 R/B Visibility forecast

Observer location: undefined°, undefined

Span
Click to sort rows by Start time (UTC) header in descending order
Start Az.
Max El. time (UTC)
Max El. Az.
Max El.
End time (UTC)
End Az.
4 mins2024-12-26 22:08:14.804Z102.571° ESE2024-12-26 22:10:14.804Z80.364° E14.242°2024-12-26 22:12:14.804Z58.982° ENE
9 mins2024-12-26 23:48:14.804Z198.019° SSW2024-12-26 23:52:14.804Z272.18° WNW43.738°2024-12-26 23:57:14.804Z3.962° NNE
9 mins2024-12-27 10:29:14.804Z353.557° N2024-12-27 10:33:14.804Z29.193° NE44.29°2024-12-27 10:38:14.804Z168.377° S
|